Location: Madrid
(40.4000°N, 3.6830°W)
Time: 00:23:37
(UTC+02:00)

ISS - Pass Details

Date: 17 July 2019
Orbit: 409 x 418 km, 51.6° (Epoch: 22 July)

Event Time Altitude Azimuth Distance (km) Brightness Sun altitude
Rises 05:29:35 0° 309° (NW) 2,344 0.0 -14.3°
Reaches altitude 10° 05:31:43 10° 314° (NW) 1,479 -1.0 -14.0°
Maximum altitude 05:34:58 54° 33° (NNE) 502 -3.0 -13.6°
Drops below altitude 10° 05:38:13 10° 112° (ESE) 1,469 -0.7 -13.2°
Sets 05:40:19 0° 117° (ESE) 2,326 0.3 -12.9°
